Hourly Weather Muniaczkowice

Today, 28 September, Tuesday

Time Temperature Precipitation Wind Pressure Humidity
00:00 +10°C° 0 mm 3 mps 742 mmHg 82%
01:00 +9°C° 0 mm 2 mps 742 mmHg 82%
02:00 +9°C° 0 mm 2 mps 742 mmHg 83%
03:00 +9°C° 0 mm 2 mps 742 mmHg 83%
04:00 +8°C° 0 mm 2 mps 742 mmHg 84%
05:00 +8°C° 0 mm 2 mps 742 mmHg 83%
06:00 +9°C° 0 mm 2 mps 742 mmHg 82%
07:00 +9°C° 0 mm 2 mps 743 mmHg 80%
08:00 +10°C° 0 mm 2 mps 743 mmHg 76%
09:00 +11°C° 0 mm 3 mps 743 mmHg 71%
10:00 +13°C° 0 mm 3 mps 743 mmHg 66%
11:00 +14°C° 0 mm 3 mps 743 mmHg 64%
12:00 +14°C° 0 mm 3 mps 744 mmHg 62%
13:00 +15°C° 0 mm 4 mps 744 mmHg 60%
14:00 +16°C° 0 mm 3 mps 744 mmHg 62%
15:00 +16°C° 0 mm 3 mps 744 mmHg 64%
16:00 +16°C° 0 mm 3 mps 744 mmHg 66%
17:00 +13°C° 0 mm 3 mps 744 mmHg 70%
18:00 +12°C° 0 mm 3 mps 744 mmHg 74%
19:00 +11°C° 0 mm 3 mps 744 mmHg 77%
20:00 +10°C° 0 mm 3 mps 744 mmHg 80%
21:00 +10°C° 0 mm 2 mps 744 mmHg 82%
22:00 +9°C° 0 mm 2 mps 744 mmHg 85%
23:00 +9°C° 0 mm 3 mps 744 mmHg 85%

Tomorrow, 29 September, Wednesday

Time Temperature Precipitation Wind Pressure Humidity
00:00 +8°C° 0 mm 3 mps 744 mmHg 86%
01:00 +8°C° 0 mm 3 mps 744 mmHg 87%
02:00 +7°C° 0 mm 3 mps 744 mmHg 88%
03:00 +7°C° 0 mm 3 mps 743 mmHg 89%
04:00 +5°C° 0 mm 3 mps 743 mmHg 89%
05:00 +7°C° 0 mm 3 mps 743 mmHg 87%
06:00 +7°C° 0 mm 3 mps 743 mmHg 85%
07:00 +7°C° 0 mm 3 mps 743 mmHg 83%
08:00 +9°C° 0 mm 3 mps 743 mmHg 78%
09:00 +11°C° 0 mm 3 mps 743 mmHg 72%
10:00 +13°C° 0 mm 4 mps 743 mmHg 67%
11:00 +16°C° 0 mm 3 mps 743 mmHg 64%
12:00 +18°C° 0 mm 3 mps 742 mmHg 61%
13:00 +19°C° 0 mm 3 mps 742 mmHg 58%
14:00 +19°C° 0 mm 3 mps 742 mmHg 62%
15:00 +19°C° 0 mm 2 mps 742 mmHg 65%
16:00 +19°C° 0 mm 2 mps 742 mmHg 69%
17:00 +18°C° 0 mm 2 mps 742 mmHg 73%
18:00 +17°C° 0 mm 2 mps 742 mmHg 76%
19:00 +15°C° 0 mm 2 mps 742 mmHg 80%
20:00 +15°C° 0 mm 1 mps 742 mmHg 81%
21:00 +15°C° 0 mm 1 mps 743 mmHg 82%
22:00 +15°C° 0 mm 1 mps 743 mmHg 83%
23:00 +15°C° 0.5 mm 2 mps 743 mmHg 86%

Day after tomorrow, 30 September, Thursday

Time Temperature Precipitation Wind Pressure Humidity
00:00 +14°C° 0.5 mm 3 mps 743 mmHg 89%
01:00 +13°C° 0.5 mm 3 mps 744 mmHg 92%
02:00 +13°C° 0.7 mm 3 mps 744 mmHg 92%
03:00 +14°C° 0.7 mm 2 mps 744 mmHg 93%
04:00 +13°C° 0.7 mm 2 mps 745 mmHg 93%
05:00 +13°C° 0.7 mm 2 mps 745 mmHg 94%
06:00 +13°C° 0.7 mm 1 mps 745 mmHg 94%
07:00 +13°C° 0.7 mm 1 mps 746 mmHg 94%
08:00 +13°C° 0.3 mm 2 mps 746 mmHg 91%
09:00 +14°C° 0.3 mm 2 mps 747 mmHg 87%
10:00 +14°C° 0.3 mm 2 mps 747 mmHg 84%
11:00 +13°C° 0.1 mm 3 mps 748 mmHg 80%
12:00 +13°C° 0.1 mm 3 mps 748 mmHg 77%
13:00 +13°C° 0.1 mm 3 mps 748 mmHg 74%
14:00 +14°C° 0 mm 2 mps 748 mmHg 72%
15:00 +14°C° 0 mm 1 mps 748 mmHg 71%
16:00 +14°C° 0 mm 1 mps 748 mmHg 69%
17:00 +13°C° 0 mm 1 mps 748 mmHg 72%
18:00 +12°C° 0 mm 1 mps 749 mmHg 75%
19:00 +11°C° 0 mm 1 mps 749 mmHg 78%
20:00 +11°C° 0 mm 1 mps 749 mmHg 79%
21:00 +11°C° 0 mm 1 mps 749 mmHg 79%
22:00 +11°C° 0 mm 1 mps 749 mmHg 79%
23:00 +11°C° 0 mm 1 mps 749 mmHg 80%

1 October, Friday

Time Temperature Precipitation Wind Pressure Humidity
00:00 +11°C° 0 mm 1 mps 749 mmHg 81%
01:00 +11°C° 0 mm 1 mps 749 mmHg 82%
02:00 +10°C° 0 mm 1 mps 749 mmHg 85%
03:00 +10°C° 0 mm 1 mps 748 mmHg 88%
04:00 +9°C° 0 mm 1 mps 748 mmHg 90%
05:00 +10°C° 0 mm 1 mps 748 mmHg 90%
06:00 +10°C° 0 mm 1 mps 748 mmHg 90%
07:00 +10°C° 0 mm 1 mps 748 mmHg 90%
08:00 +12°C° 0 mm 2 mps 748 mmHg 84%
09:00 +13°C° 0 mm 3 mps 748 mmHg 77%
10:00 +16°C° 0 mm 3 mps 748 mmHg 71%
11:00 +16°C° 0 mm 3 mps 748 mmHg 67%
12:00 +17°C° 0 mm 3 mps 747 mmHg 64%
13:00 +18°C° 0 mm 3 mps 747 mmHg 60%
14:00 +18°C° 0 mm 3 mps 746 mmHg 64%
15:00 +17°C° 0 mm 3 mps 746 mmHg 67%
16:00 +17°C° 0 mm 3 mps 745 mmHg 71%
17:00 +14°C° 0 mm 3 mps 745 mmHg 77%
18:00 +14°C° 0 mm 2 mps 745 mmHg 83%
19:00 +12°C° 0 mm 2 mps 745 mmHg 89%
20:00 +12°C° 0 mm 2 mps 745 mmHg 89%
21:00 +12°C° 0 mm 2 mps 745 mmHg 89%
22:00 +12°C° 0 mm 2 mps 744 mmHg 89%
23:00 +10°C° 0 mm 2 mps 744 mmHg 89%

2 October, Saturday

Time Temperature Precipitation Wind Pressure Humidity
00:00 +11°C° 0 mm 1 mps 744 mmHg 89%
01:00 +11°C° 0 mm 1 mps 743 mmHg 89%
02:00 +11°C° 0 mm 1 mps 743 mmHg 89%
03:00 +10°C° 0 mm 1 mps 743 mmHg 88%
04:00 +10°C° 0 mm 1 mps 742 mmHg 88%
05:00 +11°C° 0 mm 1 mps 742 mmHg 86%
06:00 +11°C° 0 mm 1 mps 742 mmHg 84%
07:00 +12°C° 0 mm 1 mps 742 mmHg 83%
08:00 +13°C° 0 mm 1 mps 742 mmHg 76%
09:00 +15°C° 0 mm 2 mps 742 mmHg 68%
10:00 +17°C° 0 mm 2 mps 742 mmHg 61%
11:00 +18°C° 0 mm 2 mps 742 mmHg 58%
12:00 +20°C° 0 mm 1 mps 741 mmHg 54%
13:00 +21°C° 0 mm 1 mps 741 mmHg 50%
14:00 +21°C° 0 mm 1 mps 741 mmHg 54%
15:00 +20°C° 0 mm 1 mps 740 mmHg 57%
16:00 +20°C° 0 mm 1 mps 740 mmHg 60%
17:00 +18°C° 0 mm 1 mps 740 mmHg 65%
18:00 +15°C° 0 mm 1 mps 740 mmHg 70%
19:00 +14°C° 0 mm 1 mps 740 mmHg 74%
20:00 +13°C° 0 mm 1 mps 740 mmHg 75%
21:00 +13°C° 0 mm 1 mps 740 mmHg 75%
22:00 +12°C° 0 mm 1 mps 740 mmHg 76%
23:00 +12°C° 0 mm 1 mps 740 mmHg 76%

3 October, Sunday

Time Temperature Precipitation Wind Pressure Humidity
00:00 +11°C° 0 mm 1 mps 740 mmHg 76%
01:00 +11°C° 0 mm 1 mps 740 mmHg 76%
02:00 +11°C° 0 mm 1 mps 740 mmHg 77%
03:00 +11°C° 0 mm 1 mps 739 mmHg 77%
04:00 +10°C° 0 mm 1 mps 739 mmHg 78%
05:00 +11°C° 0 mm 1 mps 739 mmHg 77%
06:00 +11°C° 0 mm 1 mps 739 mmHg 76%
07:00 +10°C° 0 mm 2 mps 739 mmHg 75%
08:00 +13°C° 0 mm 2 mps 739 mmHg 68%
09:00 +14°C° 0 mm 3 mps 738 mmHg 61%
10:00 +17°C° 0 mm 3 mps 738 mmHg 55%
11:00 +17°C° 0 mm 4 mps 737 mmHg 52%
12:00 +18°C° 0 mm 4 mps 737 mmHg 49%
13:00 +19°C° 0 mm 4 mps 737 mmHg 46%
14:00 +19°C° 0 mm 5 mps 736 mmHg 49%
15:00 +17°C° 0 mm 5 mps 735 mmHg 53%
16:00 +17°C° 0 mm 6 mps 735 mmHg 56%
17:00 +16°C° 0 mm 6 mps 734 mmHg 56%
18:00 +15°C° 0 mm 6 mps 734 mmHg 55%
19:00 +14°C° 0 mm 6 mps 734 mmHg 54%
20:00 +14°C° 0 mm 5 mps 734 mmHg 54%
21:00 +14°C° 0 mm 5 mps 734 mmHg 53%
22:00 +14°C° 0 mm 5 mps 734 mmHg 52%
23:00 +14°C° 0 mm 5 mps 733 mmHg 52%
Show more

We Need Your Consent

Meteoprog and our Service Providers may store and access personal data such as cookies, device identifiers or other similar technologies on your device and process such data to personalise content and ads, as well as provide social media features and to analyse the traffic.

  • Store and/or access information on your device

    Cookies, device identifiers or other information can be stored or accessed on your device for the purposes indicated above.

  • Personalised ads and content, ad and content measurement, audience insights, and products development

    Ads and content can be personalised based on a profile. More data can be added to better personalise ads and content. Ad and content performance can be measured. Insights about the audience who saw the ads and content can be derived. Such data can be used to develop or improve user’s experience, systems and software.

By clicking ‘I Agree’ you will allow the use of indicated cookies, device identifiers, web beacons or other similar technologies. Your settings can be changed in the browser on your device.

For certain purposes, legitimate interests may be relied on, rather than consent. You can read more about this in our Privacy and Cookie Policy.